When you browse on this site, cookies collect data to enhance your experience and personalize the content and advertising you see.
Visit our Privacy Policy to learn more. By continuing to use the site, you agree to this use of cookies and data.
  • In Hungary
  • List of Countries
  • For 7 days
  • Water Temperature
  • Satellite Maps
  • Weather Map
  • News
  • Weather Widgets
  • user-avatar
    Login

    Hourly Weather Albuquerque

    Today, 17 February, Sunday

    Time Temperature Precipitation Wind Pressure Humidity
    00:00 +2°C° 0.1 mm 2 mps 628 mmHg 40%
    01:00 +1°C° 0.1 mm 3 mps 628 mmHg 45%
    02:00 0°C° 0.1 mm 3 mps 628 mmHg 49%
    03:00 +1°C° 0 mm 2 mps 628 mmHg 50%
    04:00 +1°C° 0 mm 2 mps 628 mmHg 51%
    05:00 +1°C° 0 mm 1 mps 629 mmHg 54%
    06:00 +1°C° 0 mm 1 mps 629 mmHg 52%
    07:00 +1°C° 0 mm 2 mps 629 mmHg 50%
    08:00 +1°C° 0 mm 2 mps 629 mmHg 48%
    09:00 +1°C° 0 mm 3 mps 629 mmHg 46%
    10:00 +2°C° 0 mm 3 mps 629 mmHg 44%
    11:00 +3°C° 0 mm 4 mps 629 mmHg 42%
    12:00 +2°C° 0 mm 5 mps 628 mmHg 36%
    13:00 +3°C° 0 mm 6 mps 628 mmHg 31%
    14:00 +4°C° 0 mm 7 mps 628 mmHg 25%
    15:00 +4°C° 0 mm 6 mps 628 mmHg 26%
    16:00 +4°C° 0 mm 6 mps 627 mmHg 27%
    17:00 +3°C° 0 mm 5 mps 627 mmHg 28%
    18:00 +3°C° 0 mm 5 mps 628 mmHg 31%
    19:00 +3°C° 0 mm 4 mps 628 mmHg 34%
    20:00 +3°C° 0 mm 3 mps 628 mmHg 36%
    21:00 +2°C° 0 mm 3 mps 629 mmHg 39%
    22:00 +2°C° 0 mm 3 mps 629 mmHg 42%
    23:00 +2°C° 0 mm 3 mps 629 mmHg 45%

    Tomorrow, 18 February, Monday

    Time Temperature Precipitation Wind Pressure Humidity
    00:00 +1°C° 0 mm 3 mps 629 mmHg 48%
    01:00 +1°C° 0 mm 3 mps 629 mmHg 50%
    02:00 0°C° 0 mm 3 mps 629 mmHg 53%
    03:00 0°C° 0 mm 3 mps 629 mmHg 53%
    04:00 0°C° 0 mm 3 mps 629 mmHg 53%
    05:00 -1°C° 0 mm 3 mps 629 mmHg 53%
    06:00 -1°C° 0 mm 4 mps 629 mmHg 53%
    07:00 -1°C° 0 mm 5 mps 629 mmHg 53%
    08:00 -2°C° 0 mm 6 mps 630 mmHg 53%
    09:00 -1°C° 0 mm 6 mps 630 mmHg 48%
    10:00 +2°C° 0 mm 6 mps 630 mmHg 43%
    11:00 +3°C° 0 mm 7 mps 630 mmHg 38%
    12:00 +3°C° 0 mm 7 mps 629 mmHg 38%
    13:00 +4°C° 0 mm 8 mps 628 mmHg 38%
    14:00 +4°C° 0 mm 8 mps 628 mmHg 38%
    15:00 +4°C° 0.1 mm 8 mps 627 mmHg 39%
    16:00 +4°C° 0.1 mm 8 mps 627 mmHg 41%
    17:00 +3°C° 0.1 mm 9 mps 627 mmHg 42%
    18:00 +4°C° 0.1 mm 8 mps 627 mmHg 42%
    19:00 +4°C° 0.1 mm 7 mps 627 mmHg 41%
    20:00 +4°C° 0.1 mm 6 mps 628 mmHg 41%
    21:00 +3°C° 0.1 mm 5 mps 628 mmHg 49%
    22:00 +3°C° 0.1 mm 4 mps 628 mmHg 57%
    23:00 +2°C° 0.1 mm 3 mps 628 mmHg 66%

    Day after tomorrow, 19 February, Tuesday

    Time Temperature Precipitation Wind Pressure Humidity
    00:00 +1°C° 0.8 mm 3 mps 627 mmHg 73%
    01:00 -1°C° 0.8 mm 4 mps 627 mmHg 81%
    02:00 -2°C° 0.8 mm 4 mps 627 mmHg 89%
    03:00 -2°C° 1 mm 4 mps 627 mmHg 89%
    04:00 -2°C° 1 mm 3 mps 626 mmHg 89%
    05:00 -2°C° 1 mm 2 mps 626 mmHg 89%
    06:00 -4°C° 0.3 mm 3 mps 626 mmHg 87%
    07:00 -4°C° 0.3 mm 3 mps 626 mmHg 84%
    08:00 -4°C° 0.3 mm 3 mps 626 mmHg 81%
    09:00 -2°C° 0 mm 3 mps 627 mmHg 74%
    10:00 -3°C° 0 mm 4 mps 627 mmHg 68%
    11:00 -2°C° 0 mm 4 mps 627 mmHg 61%
    12:00 -1°C° 0.1 mm 5 mps 626 mmHg 59%
    13:00 -2°C° 0.1 mm 6 mps 626 mmHg 57%
    14:00 -1°C° 0.1 mm 6 mps 626 mmHg 55%
    15:00 -2°C° 0.3 mm 7 mps 626 mmHg 57%
    16:00 -2°C° 0.3 mm 7 mps 626 mmHg 58%
    17:00 -2°C° 0.3 mm 7 mps 626 mmHg 59%
    18:00 -3°C° 0 mm 6 mps 627 mmHg 61%
    19:00 -4°C° 0 mm 5 mps 627 mmHg 62%
    20:00 -4°C° 0 mm 4 mps 628 mmHg 64%
    21:00 -5°C° 0 mm 3 mps 628 mmHg 64%
    22:00 -5°C° 0 mm 3 mps 628 mmHg 64%
    23:00 -4°C° 0 mm 2 mps 629 mmHg 65%

    20 February, Wednesday

    Time Temperature Precipitation Wind Pressure Humidity
    00:00 -5°C° 0 mm 3 mps 629 mmHg 64%
    01:00 -5°C° 0 mm 3 mps 629 mmHg 63%
    02:00 -5°C° 0 mm 4 mps 629 mmHg 62%
    03:00 -6°C° 0 mm 3 mps 629 mmHg 62%
    04:00 -6°C° 0 mm 3 mps 629 mmHg 62%
    05:00 -6°C° 0 mm 3 mps 629 mmHg 61%
    06:00 -5°C° 0 mm 3 mps 629 mmHg 60%
    07:00 -5°C° 0 mm 3 mps 630 mmHg 60%
    08:00 -4°C° 0 mm 2 mps 630 mmHg 59%
    09:00 -3°C° 0 mm 2 mps 629 mmHg 55%
    10:00 -2°C° 0 mm 3 mps 629 mmHg 52%
    11:00 -1°C° 0 mm 3 mps 629 mmHg 48%
    12:00 -1°C° 0 mm 3 mps 628 mmHg 44%
    13:00 0°C° 0 mm 3 mps 627 mmHg 40%
    14:00 +1°C° 0 mm 3 mps 626 mmHg 36%
    15:00 +3°C° 0 mm 2 mps 626 mmHg 35%
    16:00 +3°C° 0 mm 2 mps 626 mmHg 34%
    17:00 +3°C° 0 mm 2 mps 626 mmHg 34%
    18:00 +2°C° 0 mm 2 mps 627 mmHg 38%
    19:00 +1°C° 0 mm 2 mps 627 mmHg 41%
    20:00 -1°C° 0 mm 3 mps 627 mmHg 45%
    21:00 -1°C° 0 mm 3 mps 627 mmHg 46%
    22:00 -1°C° 0 mm 2 mps 627 mmHg 47%
    23:00 -1°C° 0 mm 2 mps 627 mmHg 48%

    21 February, Thursday

    Time Temperature Precipitation Wind Pressure Humidity
    00:00 -1°C° 0 mm 2 mps 627 mmHg 48%
    01:00 -2°C° 0 mm 2 mps 627 mmHg 48%
    02:00 -2°C° 0 mm 2 mps 627 mmHg 47%
    03:00 -2°C° 0 mm 2 mps 627 mmHg 46%
    04:00 -1°C° 0 mm 2 mps 627 mmHg 45%
    05:00 -1°C° 0 mm 3 mps 626 mmHg 44%
    06:00 -1°C° 0 mm 3 mps 627 mmHg 43%
    07:00 0°C° 0 mm 3 mps 627 mmHg 42%
    08:00 0°C° 0 mm 3 mps 627 mmHg 41%
    09:00 0°C° 0 mm 5 mps 627 mmHg 38%
    10:00 +1°C° 0 mm 6 mps 626 mmHg 35%
    11:00 +1°C° 0 mm 8 mps 626 mmHg 33%
    12:00 +2°C° 0 mm 9 mps 626 mmHg 33%
    13:00 +3°C° 0 mm 10 mps 625 mmHg 34%
    14:00 +3°C° 0 mm 11 mps 625 mmHg 34%
    15:00 +3°C° 0 mm 11 mps 625 mmHg 38%
    16:00 +3°C° 0 mm 11 mps 624 mmHg 42%
    17:00 +3°C° 0 mm 11 mps 624 mmHg 45%
    18:00 +2°C° 0.4 mm 10 mps 625 mmHg 51%
    19:00 +2°C° 0.4 mm 10 mps 625 mmHg 57%
    20:00 +1°C° 0.4 mm 9 mps 625 mmHg 62%
    21:00 +1°C° 0.5 mm 9 mps 626 mmHg 67%
    22:00 +1°C° 0.5 mm 9 mps 626 mmHg 71%
    23:00 +1°C° 0.5 mm 9 mps 626 mmHg 76%

    22 February, Friday

    Time Temperature Precipitation Wind Pressure Humidity
    00:00 0°C° 0.4 mm 8 mps 626 mmHg 78%
    01:00 0°C° 0.4 mm 7 mps 626 mmHg 80%
    02:00 0°C° 0.4 mm 7 mps 626 mmHg 83%
    03:00 -1°C° 0.1 mm 6 mps 627 mmHg 83%
    04:00 -1°C° 0.1 mm 5 mps 627 mmHg 83%
    05:00 -1°C° 0.1 mm 4 mps 627 mmHg 83%
    06:00 -1°C° 0.1 mm 4 mps 627 mmHg 83%
    07:00 0°C° 0.1 mm 3 mps 628 mmHg 83%
    08:00 0°C° 0.1 mm 3 mps 628 mmHg 82%
    09:00 0°C° 0 mm 3 mps 628 mmHg 78%
    10:00 +1°C° 0 mm 3 mps 628 mmHg 74%
    11:00 +1°C° 0 mm 3 mps 629 mmHg 70%
    12:00 +2°C° 0 mm 3 mps 629 mmHg 68%
    13:00 +2°C° 0 mm 3 mps 628 mmHg 65%
    14:00 +3°C° 0 mm 3 mps 628 mmHg 63%
    15:00 +2°C° 0.1 mm 3 mps 629 mmHg 64%
    16:00 +2°C° 0.1 mm 3 mps 629 mmHg 65%
    17:00 +3°C° 0.1 mm 2 mps 629 mmHg 67%
    18:00 +2°C° 0.2 mm 2 mps 630 mmHg 69%
    19:00 +1°C° 0.2 mm 2 mps 630 mmHg 72%
    20:00 +1°C° 0.2 mm 2 mps 631 mmHg 75%
    21:00 -1°C° 0 mm 2 mps 631 mmHg 74%
    22:00 -1°C° 0 mm 2 mps 632 mmHg 74%
    23:00 -2°C° 0 mm 2 mps 632 mmHg 73%
    Show more